Location: *
(12.5665°N, 8.3471°E)
Time: 00:35:28
(UTC+00:00)

Cosmos 2278 - Pass Details

Date: 23 September 2019
Orbit: 840 x 853 km, 71.1° (Epoch: 13 October)

Event Time Altitude Azimuth Distance (km) Brightness Sun altitude
Rises 03:55:31 0° 192° (SSW) 3,384 6.7 -20.4°
Reaches altitude 10° 03:57:58 10° 190° (S) 2,449 6.0 -19.8°
Maximum altitude 04:03:34 76° 106° (ESE) 864 3.8 -18.4°
Drops below altitude 10° 04:09:10 10° 20° (NNE) 2,449 6.4 -17.1°
Sets 04:11:37 0° 19° (NNE) 3,384 7.1 -16.5°
